timestamp,wind_dir_avg,wind_spd_avg,wind_spd_max_dir,wind_spd_gust,battery_voltage,lat,long
2021-01-20 00:04:01+00:00,292.0,6.67,307.0,9.23,12.57,47.59359,-54.27349
2021-01-20 00:14:01+00:00,249.0,4.82,267.0,5.9,12.57,47.59359,-54.27349
2021-01-20 00:24:01+00:00,243.0,4.14,232.0,5.33,12.57,47.59359,-54.27349
2021-01-20 00:34:01+00:00,291.0,3.3,280.0,4.49,12.57,47.59359,-54.27349
2021-01-20 00:44:01+00:00,281.0,5.02,290.0,5.96,12.57,47.59359,-54.27349
2021-01-20 00:54:01+00:00,258.0,6.22,262.0,8.05,12.57,47.59359,-54.27349
2021-01-20 01:04:01+00:00,250.0,6.04,249.0,8.15,12.57,47.59359,-54.27349
2021-01-20 01:14:01+00:00,281.0,5.46,286.0,6.7,12.49,47.59359,-54.27349
2021-01-20 01:24:01+00:00,283.0,5.99,280.0,7.55,12.49,47.59359,-54.27349
2021-01-20 01:34:01+00:00,285.0,7.07,287.0,8.47,12.49,47.59359,-54.27349
2021-01-20 01:44:01+00:00,288.0,6.73,288.0,9.02,12.49,47.59359,-54.27349
2021-01-20 01:54:01+00:00,288.0,6.85,286.0,7.91,12.49,47.59359,-54.27349
2021-01-20 02:04:01+00:00,299.0,8.9,305.0,10.09,12.49,47.59359,-54.27349
2021-01-20 02:14:01+00:00,299.0,5.95,306.0,7.04,12.49,47.59359,-54.27349
2021-01-20 02:24:01+00:00,295.0,6.36,284.0,7.9,12.49,47.59359,-54.27349
2021-01-20 02:34:01+00:00,293.0,7.55,300.0,9.68,12.49,47.59359,-54.27349
2021-01-20 02:44:01+00:00,316.0,9.36,324.0,12.12,12.49,47.59359,-54.27349
2021-01-20 02:54:01+00:00,291.0,7.88,286.0,9.23,12.49,47.59359,-54.27349
2021-01-20 03:04:01+00:00,293.0,7.31,307.0,10.11,12.49,47.59359,-54.27349
2021-01-20 03:14:01+00:00,305.0,6.71,307.0,7.51,12.49,47.59359,-54.27349
2021-01-20 03:24:01+00:00,280.0,6.08,271.0,7.4,12.49,47.59359,-54.27349
2021-01-20 03:34:01+00:00,288.0,4.49,285.0,5.58,12.49,47.59359,-54.27349
2021-01-20 03:44:01+00:00,296.0,4.63,296.0,5.23,12.49,47.59359,-54.27349
2021-01-20 03:54:01+00:00,290.0,4.8,285.0,5.64,12.49,47.59359,-54.27349
2021-01-20 04:04:01+00:00,275.0,6.36,274.0,8.26,12.49,47.59359,-54.27349
2021-01-20 04:14:01+00:00,280.0,4.67,282.0,5.43,12.49,47.59359,-54.27349
2021-01-20 04:24:01+00:00,267.0,6.75,261.0,7.99,12.49,47.59359,-54.27349
2021-01-20 04:34:01+00:00,301.0,6.74,297.0,7.74,12.49,47.59359,-54.27349
2021-01-20 04:44:01+00:00,280.0,6.47,280.0,8.14,12.49,47.59359,-54.27349
2021-01-20 04:54:01+00:00,291.0,9.4,281.0,11.09,12.49,47.59359,-54.27349
2021-01-20 05:04:01+00:00,277.0,6.93,279.0,8.89,12.49,47.59359,-54.27349
2021-01-20 05:14:01+00:00,279.0,7.75,284.0,8.87,12.49,47.59359,-54.27349
2021-01-20 05:24:01+00:00,284.0,8.53,289.0,9.59,12.49,47.59359,-54.27349
2021-01-20 05:34:01+00:00,276.0,7.98,282.0,8.94,12.49,47.59359,-54.27349
2021-01-20 05:44:01+00:00,287.0,7.28,284.0,8.3,12.49,47.59359,-54.27349
2021-01-20 05:54:01+00:00,266.0,8.3,260.0,9.59,12.49,47.59359,-54.27349
2021-01-20 06:04:01+00:00,266.0,7.85,261.0,8.7,12.49,47.59359,-54.27349
2021-01-20 06:14:01+00:00,263.0,7.24,260.0,8.63,12.41,47.59359,-54.27349
2021-01-20 06:24:01+00:00,273.0,7.87,285.0,9.47,12.41,47.59359,-54.27349
2021-01-20 06:34:01+00:00,263.0,8.09,259.0,9.75,12.41,47.59359,-54.27349
2021-01-20 06:44:01+00:00,275.0,8.37,278.0,9.46,12.41,47.59359,-54.27349
2021-01-20 06:54:01+00:00,269.0,7.39,272.0,8.91,12.41,47.59359,-54.27349
2021-01-20 07:04:01+00:00,262.0,7.28,264.0,8.59,12.41,47.59359,-54.27349
2021-01-20 07:14:01+00:00,270.0,7.88,278.0,9.28,12.41,47.59359,-54.27349
2021-01-20 07:24:01+00:00,273.0,8.16,273.0,9.91,12.41,47.59359,-54.27349
2021-01-20 07:34:01+00:00,282.0,7.81,280.0,9.44,12.41,47.59359,-54.27349
2021-01-20 07:44:01+00:00,279.0,8.4,272.0,10.22,12.41,47.59359,-54.27349
2021-01-20 07:54:01+00:00,273.0,9.14,276.0,10.37,12.41,47.59359,-54.27349
2021-01-20 08:04:01+00:00,283.0,9.06,279.0,10.87,12.41,47.59359,-54.27349
2021-01-20 08:14:01+00:00,278.0,9.32,272.0,10.82,12.41,47.59359,-54.27349
2021-01-20 08:24:01+00:00,275.0,8.78,271.0,10.52,12.41,47.59359,-54.27349
2021-01-20 08:34:01+00:00,278.0,7.15,286.0,9.17,12.41,47.59359,-54.27349
2021-01-20 08:44:01+00:00,278.0,8.81,280.0,10.52,12.41,47.59359,-54.27349
2021-01-20 08:54:01+00:00,283.0,8.83,286.0,9.79,12.41,47.59359,-54.27349
2021-01-20 09:04:01+00:00,280.0,8.81,287.0,10.01,12.41,47.59359,-54.27349
2021-01-20 09:14:01+00:00,285.0,9.83,293.0,11.96,12.41,47.59359,-54.27349
2021-01-20 09:24:01+00:00,274.0,7.58,272.0,9.88,12.41,47.59359,-54.27349
2021-01-20 09:34:01+00:00,281.0,8.8,283.0,10.04,12.41,47.59359,-54.27349
2021-01-20 09:44:01+00:00,280.0,10.23,286.0,12.52,12.41,47.59359,-54.27349
2021-01-20 09:54:01+00:00,283.0,10.45,281.0,11.51,12.41,47.59359,-54.27349
2021-01-20 10:04:01+00:00,279.0,7.93,271.0,9.75,12.41,47.59359,-54.27349
2021-01-20 10:14:01+00:00,285.0,8.76,286.0,9.8,12.41,47.59359,-54.27349
2021-01-20 10:24:01+00:00,278.0,7.57,277.0,8.73,12.41,47.59359,-54.27349
2021-01-20 10:34:01+00:00,281.0,9.73,278.0,10.88,12.41,47.59359,-54.27349
2021-01-20 10:44:01+00:00,278.0,9.25,283.0,11.03,12.41,47.59359,-54.27349
2021-01-20 10:54:01+00:00,275.0,7.52,278.0,8.51,12.41,47.59359,-54.27349
2021-01-20 11:04:01+00:00,272.0,9.74,273.0,11.17,12.41,47.59359,-54.27349
2021-01-20 11:14:01+00:00,275.0,9.83,276.0,11.78,12.41,47.59359,-54.27349
2021-01-20 11:24:01+00:00,275.0,9.38,278.0,11.73,12.41,47.59359,-54.27349
2021-01-20 11:34:01+00:00,280.0,8.93,276.0,10.08,12.41,47.59359,-54.27349
2021-01-20 11:44:01+00:00,276.0,9.64,268.0,11.64,12.41,47.59359,-54.27349
2021-01-20 11:54:01+00:00,284.0,9.95,283.0,11.8,12.41,47.59359,-54.27349
2021-01-20 12:04:01+00:00,271.0,10.62,270.0,12.62,12.41,47.59359,-54.27349
2021-01-20 12:14:01+00:00,275.0,9.77,264.0,12.33,12.41,47.59359,-54.27349
2021-01-20 12:24:01+00:00,273.0,10.29,268.0,12.15,12.41,47.59359,-54.27349
2021-01-20 12:34:01+00:00,281.0,11.78,283.0,13.65,12.41,47.59359,-54.27349
2021-01-20 12:44:01+00:00,278.0,10.38,284.0,12.45,12.41,47.59359,-54.27349
2021-01-20 12:54:01+00:00,282.0,9.6,274.0,11.03,12.41,47.59359,-54.27349
2021-01-20 13:04:01+00:00,268.0,9.7,266.0,11.86,12.41,47.59359,-54.27349
2021-01-20 13:14:01+00:00,275.0,9.45,276.0,11.02,12.73,47.59359,-54.27349
2021-01-20 13:24:01+00:00,278.0,11.02,281.0,12.68,12.73,47.59359,-54.27349
2021-01-20 13:34:01+00:00,268.0,12.17,267.0,13.44,12.73,47.59359,-54.27349
2021-01-20 13:44:01+00:00,271.0,9.37,269.0,11.1,12.73,47.59359,-54.27349
2021-01-20 13:54:01+00:00,275.0,11.24,276.0,12.77,12.73,47.59359,-54.27349
2021-01-20 14:04:01+00:00,265.0,11.66,270.0,13.28,12.73,47.59359,-54.27349
2021-01-20 14:14:01+00:00,278.0,9.63,277.0,11.24,13.37,47.59359,-54.27349
2021-01-20 14:24:01+00:00,267.0,10.92,272.0,12.49,13.37,47.59359,-54.27349
2021-01-20 14:34:01+00:00,270.0,11.56,275.0,14.42,13.37,47.59359,-54.27349
2021-01-20 14:44:01+00:00,270.0,13.7,268.0,15.86,13.37,47.59359,-54.27349
2021-01-20 14:54:01+00:00,279.0,12.45,280.0,14.0,13.37,47.59359,-54.27349
2021-01-20 15:04:01+00:00,279.0,12.68,284.0,15.06,13.37,47.59359,-54.27349
2021-01-20 15:14:01+00:00,273.0,13.17,279.0,15.88,13.68,47.59359,-54.27349
2021-01-20 15:24:01+00:00,261.0,12.04,259.0,14.69,13.68,47.59359,-54.27349
2021-01-20 15:34:01+00:00,270.0,11.99,269.0,14.09,13.68,47.59359,-54.27349
2021-01-20 15:44:01+00:00,265.0,11.95,274.0,15.5,13.68,47.59359,-54.27349
2021-01-20 15:54:01+00:00,268.0,10.66,267.0,12.37,13.68,47.59359,-54.27349
2021-01-20 16:04:01+00:00,268.0,14.2,269.0,16.21,13.68,47.59359,-54.27349
2021-01-20 16:14:01+00:00,270.0,15.52,271.0,17.81,14.32,47.59359,-54.27349
2021-01-20 16:24:01+00:00,269.0,14.41,268.0,17.18,14.32,47.59359,-54.27349
2021-01-20 16:34:01+00:00,273.0,10.74,268.0,13.03,14.32,47.59359,-54.27349
2021-01-20 16:44:01+00:00,275.0,14.71,276.0,16.22,14.32,47.59359,-54.27349
2021-01-20 16:54:01+00:00,265.0,12.24,261.0,13.86,14.32,47.59359,-54.27349
2021-01-20 17:04:01+00:00,266.0,14.15,271.0,15.58,14.32,47.59359,-54.27349
2021-01-20 17:14:01+00:00,259.0,13.38,262.0,15.06,13.68,47.59359,-54.27349
2021-01-20 17:24:01+00:00,263.0,13.42,264.0,15.97,13.68,47.59359,-54.27349
2021-01-20 17:34:01+00:00,270.0,13.43,268.0,15.82,13.68,47.59359,-54.27349
2021-01-20 17:44:01+00:00,276.0,12.86,274.0,14.53,13.68,47.59359,-54.27349
2021-01-20 17:54:01+00:00,270.0,14.4,265.0,16.36,13.68,47.59359,-54.27349
2021-01-20 18:04:01+00:00,269.0,13.89,271.0,16.92,13.68,47.59359,-54.27349
2021-01-20 18:14:01+00:00,259.0,14.81,262.0,16.19,14.4,47.59359,-54.27349
2021-01-20 18:24:01+00:00,269.0,14.07,269.0,18.3,14.4,47.59359,-54.27349
2021-01-20 18:34:01+00:00,259.0,16.85,265.0,21.79,14.4,47.59359,-54.27349
2021-01-20 18:44:01+00:00,271.0,14.32,277.0,16.29,14.4,47.59359,-54.27349
2021-01-20 18:54:01+00:00,272.0,15.38,267.0,17.96,14.4,47.59359,-54.27349
2021-01-20 19:04:01+00:00,257.0,15.71,253.0,17.5,14.4,47.59359,-54.27349
2021-01-20 19:14:01+00:00,263.0,13.8,262.0,15.7,13.29,47.59359,-54.27349
2021-01-20 19:24:01+00:00,262.0,15.8,262.0,20.8,13.29,47.59359,-54.27349
2021-01-20 19:34:01+00:00,264.0,14.75,267.0,17.4,13.29,47.59359,-54.27349
2021-01-20 19:44:01+00:00,262.0,14.57,258.0,16.46,13.29,47.59359,-54.27349
2021-01-20 19:54:01+00:00,267.0,14.7,271.0,18.11,13.29,47.59359,-54.27349
2021-01-20 20:04:01+00:00,272.0,15.23,272.0,18.4,13.29,47.59359,-54.27349
2021-01-20 20:14:01+00:00,263.0,12.88,265.0,16.65,12.73,47.59359,-54.27349
2021-01-20 20:24:01+00:00,272.0,12.66,273.0,14.7,12.73,47.59359,-54.27349
2021-01-20 20:34:01+00:00,277.0,12.77,282.0,14.72,12.73,47.59359,-54.27349
2021-01-20 20:44:01+00:00,262.0,14.67,263.0,16.53,12.73,47.59359,-54.27349
2021-01-20 20:54:01+00:00,268.0,11.52,262.0,13.44,12.73,47.59359,-54.27349
2021-01-20 21:04:01+00:00,271.0,11.57,267.0,13.23,12.73,47.59359,-54.27349
2021-01-20 21:14:01+00:00,266.0,12.22,266.0,14.21,12.57,47.59359,-54.27349
2021-01-20 21:24:01+00:00,273.0,12.67,270.0,17.45,12.57,47.59359,-54.27349
2021-01-20 21:34:01+00:00,269.0,12.03,271.0,13.9,12.57,47.59359,-54.27349
2021-01-20 21:44:01+00:00,272.0,13.86,271.0,17.14,12.57,47.59359,-54.27349
2021-01-20 21:54:01+00:00,265.0,13.1,264.0,14.89,12.57,47.59359,-54.27349
2021-01-20 22:04:01+00:00,265.0,11.69,264.0,13.58,12.57,47.59359,-54.27349
2021-01-20 22:14:01+00:00,267.0,10.17,266.0,12.0,12.57,47.59359,-54.27349
2021-01-20 22:24:01+00:00,273.0,8.39,275.0,10.54,12.57,47.59359,-54.27349
2021-01-20 22:34:01+00:00,276.0,9.48,268.0,10.96,12.57,47.59359,-54.27349
2021-01-20 22:44:01+00:00,257.0,10.04,258.0,11.41,12.57,47.59359,-54.27349
2021-01-20 22:54:01+00:00,259.0,10.71,255.0,13.02,12.57,47.59359,-54.27349
2021-01-20 23:04:01+00:00,258.0,9.41,263.0,10.95,12.57,47.59359,-54.27349
2021-01-20 23:14:01+00:00,265.0,11.59,271.0,13.2,12.49,47.59359,-54.27349
2021-01-20 23:24:01+00:00,259.0,12.48,261.0,15.72,12.49,47.59359,-54.27349
2021-01-20 23:34:01+00:00,269.0,9.67,270.0,11.34,12.49,47.59359,-54.27349
2021-01-20 23:44:01+00:00,271.0,12.32,277.0,14.88,12.49,47.59359,-54.27349
2021-01-20 23:54:01+00:00,267.0,9.97,272.0,11.3,12.49,47.59359,-54.27349
